Temperature
13 13 13 13 12 12 12 12 12 11 11 11 11 11 11 11 11 11 11 11 11 11 11 11 11 11 11 12 12 12 12 11 11 11 11 11 11 11
12 12 12 12 12 12 12 12 12 12 11 11 11 11 11 11 11 11 11 11 11 11 11 11 11 11 11 11 11 11 11 11 11 11 11 11 11 11
12 12 12 12 12 12 12 12 11 11 11 11 11 11 11 10 10 10 10 10 11 11 11 11 11 11 11 11 11 11 11 11 11 11 11 11 11 11
12 12 12 12 12 12 12 11 11 11 11 11 11 10 10 10 10 10 10 10 10 10 10 10 10 10 11 11 11 11 11 11 11 11 11 11 11 11
12 12 12 12 12 12 11 11 11 11 11 11 10 10 10 10 10 10 10 10 10 10 10 10 10 10 10 10 10 10 10 10 10 11 10 10 10 10
12 12 12 12 12 11 11 11 11 11 10 10 10 10 10 10 10 9 9 9 9 9 10 10 10 10 10 10 10 10 10 10 10 10 10 10 10 10
12 12 11 11 11 11 11 11 11 10 10 10 10 10 10 9 9 9 9 9 9 9 9 9 9 10 10 10 9 10 10 10 10 10 10 10 10 10
11 11 11 11 11 11 11 10 10 10 10 10 10 10 10 9 9 9 9 9 9 9 9 9 9 9 9 9 9 9 9 9 9 9 9 9 9 10
11 11 11 11 11 11 10 10 10 10 10 10 10 10 9 9 9 9 9 9 9 9 8 9 8 9 9 9 9 9 9 9 9 9 9 9 9 9
10 10 10 10 10 10 10 10 10 10 9 9 9 9 9 9 9 9 9 8 8 8 8 8 8 8 8 9 9 8 9 9 9 9 9 9 9 9
10 10 10 10 10 10 10 10 10 10 9 9 9 9 9 9 9 8 8 8 8 8 8 8 8 8 8 8 8 8 8 8 8 8 8 8 8 8
10 9 9 9 9 9 9 9 9 9 9 9 9 9 9 8 8 8 8 8 8 8 8 8 8 7 7 8 8 8 8 8 8 8 8 8 8 8
9 9 9 9 9 9 9 9 9 9 9 9 8 8 8 8 8 8 8 8 8 7 8 7 7 7 7 7 7 7 7 8 8 8 8 8 8 8
9 9 9 8 8 8 8 8 8 8 8 8 8 8 8 8 8 8 8 8 7 7 7 7 7 7 7 7 7 7 7 7 7 7 7 7 7 7
9 8 8 8 8 8 8 8 8 8 8 8 8 8 8 8 8 7 7 7 7 7 7 7 7 7 7 7 7 7 7 7 7 7 7 7 7 7
8 8 8 8 8 8 8 8 8 7 7 7 7 7 7 7 7 7 7 7 7 7 7 7 7 7 7 7 6 6 6 6 6 6 6 6 7 7
8 8 7 7 7 7 7 7 7 7 7 7 7 7 7 7 7 7 7 7 6 6 6 6 6 6 6 6 6 6 6 6 6 6 6 6 6 6
7 7 7 7 7 7 7 7 7 7 7 7 7 7 6 6 6 6 6 6 6 6 6 6 6 6 6 6 6 6 6 6 6 6 6 6 6 6
7 7 7 7 7 6 6 6 6 6 6 6 6 6 6 6 6 6 6 6 6 6 5 5 5 5 5 5 6 6 6 6 6 5 5 5 5 6
7 7 7 6 6 6 6 6 6 6 6 6 6 6 5 5 5 5 5 5 5 5 5 5 5 5 5 5 5 5 5 5 5 5 5 5 5 5
6 6 6 6 6 6 6 6 5 5 5 5 5 5 5 5 5 5 5 5 5 5 5 5 5 5 5 5 5 5 5 5 5 5 5 5 5 5
6 6 6 6 6 6 5 5 5 5 5 5 5 5 5 5 5 5 4 4 4 4 4 4 4 4 4 4 4 4 5 5 5 4 4 4 4 4
6 6 5 5 5 5 5 5 5 5 5 5 4 4 4 4 4 4 4 4 4 4 4 4 4 4 4 4 4 4 4 4 4 4 4 4 4 4
Wind_Speed
1 1 1 1 0 1 1 2 2 1 1 1 0 1 3 3 2 2 2 1 1 2 3 3 4 4 5 4 4 3 2 2 2 1 1 1 1 1
0 1 0 1 0 1 1 1 1 1 1 1 0 1 2 2 1 3 2 1 1 1 1 2 3 4 4 4 3 3 2 2 1 1 1 1 1 1
1 1 1 0 1 0 0 0 0 1 1 1 0 1 1 1 1 2 2 2 1 1 1 1 1 2 3 3 3 2 2 1 1 1 1 1 1 1
2 1 1 1 1 0 1 1 0 1 2 1 1 0 1 1 1 1 1 1 2 1 1 1 1 1 2 2 2 2 2 2 2 1 1 1 1 1
3 2 2 2 1 1 1 1 1 1 1 1 1 1 1 1 1 1 1 0 1 2 2 1 1 0 1 1 2 2 2 2 2 1 1 2 2 2
2 2 2 3 3 3 2 2 1 1 1 1 1 1 1 1 1 1 1 1 1 1 1 2 2 2 2 2 0 0 0 0 1 1 1 2 2 2
2 1 1 1 2 1 2 2 2 2 1 1 2 1 1 1 1 2 1 1 2 1 0 1 2 2 2 3 2 2 2 2 2 2 2 2 3 3
2 1 1 1 1 1 1 1 2 3 3 2 2 3 3 2 1 1 1 1 2 2 1 2 2 2 3 3 3 3 3 3 3 3 3 3 3 4
1 1 2 1 1 1 1 1 1 2 3 3 3 4 3 3 3 2 2 2 3 2 1 2 2 2 3 4 5 6 5 5 5 5 5 4 4 4
1 1 1 1 0 1 1 2 2 2 3 3 3 3 2 2 3 3 3 2 2 1 1 2 2 2 2 4 7 7 7 7 7 6 6 6 5 5
1 1 1 0 1 1 1 1 1 2 3 3 2 3 3 3 2 1 1 1 2 3 2 2 2 2 2 2 6 8 8 8 8 8 8 7 7 6
1 0 1 1 2 1 1 2 2 3 2 2 2 2 3 3 4 3 3 2 2 2 2 2 2 1 2 2 2 5 6 7 8 8 8 7 7 5
2 1 1 2 2 2 2 2 3 2 2 2 2 2 2 2 3 3 3 3 3 3 2 2 2 1 2 2 2 2 3 4 5 6 7 7 7 6
2 2 1 2 2 3 3 3 3 2 1 2 2 2 3 3 3 3 3 3 4 4 3 2 2 3 2 2 3 2 2 3 3 3 4 6 7 8
2 3 3 3 3 2 3 4 3 1 1 2 3 3 3 3 2 2 2 2 3 5 5 3 2 2 2 3 3 2 2 3 2 2 2 3 4 4
3 3 4 3 2 3 2 2 2 2 2 3 3 3 2 2 2 2 2 2 2 3 4 5 4 3 3 3 3 3 3 2 2 3 3 3 3 5
2 2 2 1 1 1 1 2 2 2 2 2 2 2 2 2 2 2 1 2 2 3 3 2 3 3 3 3 4 4 4 4 3 3 3 3 4 5
2 2 2 2 2 2 2 2 3 3 3 3 2 2 3 3 3 2 2 2 3 3 3 2 2 1 2 3 5 5 4 5 4 3 3 4 5 4
2 3 3 2 2 2 3 3 3 3 3 3 3 3 3 3 3 3 3 3 3 4 3 2 2 2 4 5 4 6 6 5 4 3 3 4 5 5
3 3 2 2 2 2 2 2 2 2 2 2 3 3 3 3 3 3 3 4 4 4 3 3 3 4 5 5 4 4 7 5 4 5 4 4 4 6
3 3 3 2 2 2 2 2 2 3 3 3 3 3 3 3 4 4 3 4 4 4 4 5 5 5 3 2 3 4 4 6 6 4 4 3 4 4
3 3 3 2 2 2 2 2 3 3 3 3 4 4 4 4 4 4 4 4 4 4 5 4 3 2 2 3 5 5 4 4 6 9 7 5 3 4
3 3 2 2 3 2 2 2 3 3 3 3 4 4 4 4 4 4 4 4 4 4 3 3 2 2 3 3 4 4 5 4 3 3 5 8 9 10
Wind_Direction
286 284 274 272 182 150 145 151 155 228 283 247 120 135 114 110 123 107 92 48 52 47 35 23 14 15 14 15 26 37 49 44 38 44 78 110 96 97
283 337 314 272 147 131 159 209 177 163 227 273 255 193 120 120 136 117 126 120 103 86 58 35 26 26 24 22 29 42 56 51 34 20 34 71 88 81
247 250 260 211 108 124 167 229 228 147 185 272 254 131 94 127 116 134 138 146 145 158 130 62 31 27 25 21 18 27 36 31 5 333 286 268 220 150
241 235 236 203 168 171 172 206 206 180 162 193 240 169 190 168 163 189 170 165 162 203 183 136 61 22 22 20 20 22 28 31 24 0 330 295 255 208
232 223 216 179 199 210 191 197 200 136 133 160 216 227 223 169 107 317 310 352 225 199 189 217 205 326 348 7 32 53 46 36 26 9 335 314 294 251
256 236 220 191 195 201 200 194 164 139 143 152 196 230 226 205 134 226 301 299 290 258 205 222 201 225 247 258 256 28 45 12 359 340 322 301 283 254
252 258 250 210 193 198 205 192 165 152 164 190 209 219 231 207 221 218 241 258 273 258 254 237 195 201 218 233 243 264 252 250 261 277 283 281 268 253
242 266 256 182 125 105 106 201 178 183 196 204 222 216 222 212 212 233 234 254 281 262 215 263 205 221 206 194 218 239 243 247 258 264 268 268 265 258
246 248 274 269 146 169 212 235 253 250 230 219 221 230 215 208 194 214 235 236 251 245 225 269 254 239 223 215 223 225 233 249 253 255 263 267 266 263
251 249 247 185 321 210 201 211 225 253 253 241 231 240 242 214 194 204 211 230 267 270 134 254 270 258 247 218 224 225 234 237 242 247 253 254 255 260
3 360 340 270 319 257 208 214 227 256 263 238 240 232 231 232 217 179 214 218 262 257 217 221 259 268 255 235 224 231 238 242 244 248 248 247 246 250
317 330 355 342 341 7 227 223 240 254 251 250 249 254 232 226 228 208 200 220 258 259 228 204 255 287 290 267 227 226 232 243 249 248 243 245 243 241
302 293 300 309 309 286 278 251 254 261 245 242 235 233 233 222 228 233 215 199 229 255 239 185 224 225 230 279 282 236 217 238 240 244 239 243 241 230
292 296 294 286 278 284 287 298 303 304 266 253 249 239 236 233 232 230 234 220 220 241 238 196 209 210 216 264 280 287 274 251 224 227 226 244 245 241
286 305 314 295 281 280 276 290 300 278 252 252 251 249 240 232 216 217 232 243 255 255 242 226 221 224 209 231 252 268 289 280 247 243 232 229 232 235
297 305 308 297 275 276 296 286 259 246 236 244 251 252 254 241 228 223 225 229 250 271 256 230 219 215 237 247 245 259 254 255 265 257 246 241 238 234
299 301 302 317 300 290 278 267 259 256 251 253 252 256 256 250 248 239 225 228 235 248 265 264 238 228 219 228 251 255 257 264 258 241 244 256 251 242
271 260 256 249 248 251 253 256 254 255 252 246 245 247 249 249 253 256 245 235 240 250 254 254 261 286 295 278 239 245 252 257 256 242 230 247 263 258
238 246 244 244 252 253 252 251 256 260 255 246 246 250 252 250 246 248 249 249 248 248 253 246 238 235 261 278 278 240 245 257 253 250 241 237 250 255
234 240 249 252 256 254 256 264 270 274 271 259 253 253 251 253 257 254 249 250 254 255 261 256 238 233 240 255 269 278 248 247 251 251 253 255 258 259
246 249 251 251 255 255 254 260 271 274 271 263 256 257 252 249 252 253 252 258 254 255 254 254 252 250 252 265 279 280 279 263 262 261 254 258 268 268
247 243 246 254 259 259 256 253 262 270 273 265 259 253 250 246 246 246 245 249 249 250 256 261 257 250 246 256 265 271 278 286 278 274 272 259 244 246
243 242 247 253 254 261 263 261 265 268 269 270 263 255 251 251 247 241 240 243 250 252 257 259 261 251 249 250 255 266 271 279 286 290 284 281 271 265
Height
1529 1529 1529 1529 1530 1530 1530 1530 1531 1530 1530 1530 1530 1530 1529 1529 1529 1528 1528 1527 1527 1526 1526 1525 1525 1524 1524 1523 1523 1523 1523 1523 1523 1524 1524 1524 1524 1525
1527 1527 1528 1528 1528 1528 1529 1529 1529 1529 1528 1529 1529 1529 1528 1528 1528 1527 1527 1526 1526 1525 1525 1524 1524 1523 1523 1522 1522 1522 1522 1522 1522 1522 1523 1523 1523 1523
1525 1526 1526 1526 1526 1526 1527 1527 1527 1527 1526 1527 1527 1527 1527 1527 1526 1526 1525 1525 1524 1524 1523 1523 1523 1522 1522 1521 1521 1521 1521 1521 1521 1521 1521 1521 1522 1522
1523 1524 1524 1524 1524 1525 1524 1525 1525 1525 1525 1524 1525 1525 1525 1525 1525 1524 1524 1523 1523 1522 1522 1522 1521 1521 1520 1520 1520 1519 1519 1519 1519 1519 1519 1520 1520 1520
1521 1522 1522 1522 1522 1522 1522 1523 1523 1523 1523 1523 1523 1523 1523 1524 1523 1523 1522 1522 1521 1521 1520 1520 1520 1519 1519 1519 1518 1518 1517 1517 1517 1517 1518 1518 1518 1518
1519 1519 1520 1520 1520 1520 1520 1520 1521 1521 1521 1521 1521 1521 1521 1522 1521 1521 1520 1520 1520 1519 1519 1518 1518 1518 1518 1517 1516 1516 1516 1515 1515 1515 1515 1515 1515 1515
1516 1516 1517 1517 1518 1518 1518 1518 1518 1518 1518 1518 1519 1519 1519 1519 1519 1519 1518 1518 1518 1518 1517 1517 1516 1516 1515 1515 1515 1514 1514 1513 1513 1513 1512 1512 1512 1512
1513 1513 1514 1514 1514 1515 1515 1516 1516 1516 1516 1516 1516 1516 1516 1517 1517 1517 1516 1516 1515 1516 1515 1515 1514 1514 1513 1513 1513 1512 1512 1511 1510 1510 1509 1509 1509 1509
1510 1511 1511 1511 1511 1512 1512 1513 1513 1514 1514 1514 1514 1514 1514 1514 1515 1514 1514 1514 1513 1513 1513 1512 1512 1511 1511 1510 1510 1510 1509 1508 1508 1507 1506 1506 1506 1506
1508 1508 1508 1508 1508 1508 1508 1509 1510 1510 1511 1511 1511 1511 1512 1512 1512 1512 1512 1511 1511 1511 1511 1510 1509 1508 1508 1507 1507 1507 1506 1505 1505 1504 1503 1503 1503 1503
1505 1505 1505 1505 1505 1506 1506 1506 1506 1507 1508 1508 1508 1508 1509 1509 1509 1509 1508 1508 1507 1507 1508 1507 1506 1505 1505 1504 1504 1503 1503 1502 1501 1501 1500 1500 1500 1499
1502 1502 1503 1503 1503 1503 1503 1503 1503 1503 1504 1504 1504 1505 1505 1505 1505 1506 1505 1505 1504 1504 1504 1504 1503 1503 1501 1501 1501 1500 1499 1499 1498 1497 1497 1497 1496 1496
1499 1499 1499 1499 1500 1500 1500 1500 1500 1500 1500 1500 1501 1501 1501 1501 1501 1501 1501 1502 1501 1501 1501 1501 1500 1500 1499 1498 1497 1497 1496 1495 1494 1494 1494 1493 1493 1493
1496 1496 1496 1496 1496 1497 1497 1497 1497 1497 1497 1497 1497 1497 1497 1497 1497 1497 1497 1497 1497 1498 1498 1498 1497 1496 1496 1494 1494 1493 1492 1492 1491 1490 1490 1490 1489 1489
1494 1493 1493 1493 1493 1493 1493 1493 1493 1493 1493 1493 1492 1493 1493 1493 1493 1493 1493 1493 1493 1493 1493 1493 1493 1493 1492 1491 1490 1489 1489 1488 1487 1487 1486 1486 1486 1485
1490 1490 1490 1490 1490 1489 1489 1489 1490 1490 1490 1489 1489 1489 1489 1489 1489 1489 1489 1488 1488 1488 1489 1489 1489 1489 1488 1487 1487 1486 1485 1484 1484 1483 1482 1482 1482 1481
1487 1486 1486 1486 1486 1486 1486 1486 1486 1486 1486 1486 1486 1485 1485 1485 1485 1485 1485 1484 1484 1484 1484 1484 1484 1484 1484 1483 1482 1481 1481 1480 1480 1479 1478 1477 1477 1477
1483 1482 1482 1482 1482 1482 1482 1482 1482 1482 1482 1482 1482 1482 1481 1481 1481 1481 1481 1480 1480 1480 1479 1479 1479 1479 1479 1478 1478 1477 1476 1476 1475 1475 1474 1473 1472 1472
1479 1479 1479 1479 1479 1479 1479 1478 1478 1478 1478 1478 1478 1477 1477 1477 1477 1477 1477 1476 1476 1475 1475 1475 1475 1474 1473 1472 1472 1473 1472 1471 1470 1470 1469 1468 1467 1467
1475 1475 1475 1475 1475 1475 1475 1475 1474 1474 1474 1474 1473 1473 1473 1473 1472 1472 1472 1472 1471 1471 1471 1470 1470 1470 1469 1469 1467 1467 1467 1466 1465 1464 1464 1463 1463 1463
1471 1471 1471 1471 1471 1471 1471 1471 1470 1470 1470 1469 1469 1468 1468 1468 1468 1468 1467 1467 1467 1467 1466 1465 1466 1466 1466 1465 1463 1461 1462 1462 1461 1460 1459 1458 1457 1457
1467 1467 1467 1467 1467 1467 1467 1466 1466 1465 1465 1464 1464 1464 1464 1464 1463 1463 1463 1463 1462 1462 1462 1462 1462 1461 1461 1460 1458 1457 1456 1456 1456 1455 1455 1455 1453 1452
1463 1463 1463 1463 1463 1463 1463 1462 1461 1461 1460 1460 1459 1459 1459 1458 1458 1458 1458 1458 1458 1458 1457 1457 1457 1456 1456 1455 1454 1453 1453 1452 1451 1450 1450 1449 1449 1448